Dewpoint
73 71 70 70 72 74 70 69 59 62 61 52 52 54 55 58 57 58 60 62 61 62 60 58 57 57 56 54 56 56 60 57 59 58 57 65 70 70 71 71 71 71 71 72 73 75 76 76 76 76 76 76 76 77 77 77 77 76 77 77 77 76 76 76 76 77 77 76 77 77 77 76 76 76 76 75 75 75 75 75 75 75 74 74 74 74 74 74 74 74 74 74 73 73 74 75 75
71 70 69 74 74 72 65 68 60 57 57 54 48 53 53 56 58 55 56 59 59 60 58 57 56 58 57 57 57 58 60 60 60 61 63 65 68 69 70 71 70 71 71 72 72 72 75 76 77 76 76 76 77 77 77 77 76 76 77 77 76 76 76 76 77 77 77 76 77 77 77 76 76 76 76 76 76 75 75 75 75 75 74 74 74 74 74 74 74 75 74 74 74 74 74 74 75
69 70 70 72 73 69 70 66 58 54 52 46 50 52 54 55 54 55 57 58 59 59 57 57 58 58 57 56 55 57 59 61 62 62 63 66 66 69 70 70 71 72 72 72 72 73 74 76 77 77 76 77 77 77 77 77 76 77 77 77 76 76 77 77 77 77 77 77 77 77 76 76 76 76 76 75 75 75 74 74 74 75 74 74 74 74 74 74 74 74 74 74 74 74 74 74 74
70 71 70 72 67 69 64 63 59 54 49 47 47 53 54 53 54 55 57 59 60 58 57 56 56 60 57 55 57 58 59 60 62 62 64 64 65 68 70 70 72 71 71 72 71 72 74 76 77 77 76 77 77 77 77 77 77 77 77 76 76 76 77 77 77 77 77 77 77 77 76 76 76 75 75 75 74 75 74 74 74 74 74 74 74 74 74 74 74 74 74 74 74 74 74 74 73
70 71 72 71 67 62 61 58 54 51 45 47 46 50 51 53 55 56 58 60 59 58 57 57 58 61 61 59 59 57 61 63 63 63 61 64 66 69 70 71 70 70 70 71 70 72 74 76 76 77 77 77 77 77 77 77 77 77 76 77 76 76 76 77 77 77 77 77 77 77 76 76 76 75 75 75 75 75 74 74 74 74 74 74 74 74 74 74 74 74 74 75 75 74 73 74 74
70 71 71 71 67 66 62 58 53 47 48 49 49 49 52 53 55 57 58 60 60 59 58 57 57 58 60 61 62 61 63 60 63 62 62 64 67 68 70 70 69 69 70 71 71 72 74 77 77 77 77 77 77 77 77 77 77 77 76 76 76 76 76 76 77 77 77 77 77 77 76 76 76 75 75 75 75 75 74 74 74 74 74 74 74 74 74 74 75 74 75 74 74 74 74 73 74
69 70 68 68 67 65 57 51 46 46 47 50 49 51 52 54 55 57 58 59 60 59 59 58 58 59 58 61 62 64 65 63 62 62 63 64 67 69 69 68 69 70 70 71 71 73 73 77 76 77 77 77 77 76 77 77 77 77 77 77 76 76 76 77 77 77 77 77 77 77 76 76 76 75 75 75 74 74 74 74 75 75 75 74 75 75 75 75 75 75 75 75 75 75 74 74 73
70 68 64 63 58 58 55 48 48 49 47 51 51 51 53 54 56 56 57 57 58 58 59 60 58 57 61 62 61 66 65 64 63 63 65 65 66 69 68 68 69 69 69 71 73 73 76 76 76 76 76 76 76 76 76 76 76 76 77 77 77 76 77 77 77 76 77 76 77 76 76 76 76 75 75 75 75 74 74 75 75 75 75 75 75 75 75 75 75 75 75 74 74 74 74 74 74
67 67 64 63 57 52 51 46 46 48 49 51 51 55 57 55 55 55 56 56 57 59 59 59 58 57 60 61 64 66 65 63 64 66 65 65 65 68 67 67 67 68 69 70 71 72 74 76 76 76 76 76 76 76 76 76 76 76 77 76 76 77 77 77 77 76 76 76 76 76 76 76 75 75 75 75 75 75 75 75 75 75 74 74 75 75 75 75 75 75 75 75 74 74 74 74 74
66 65 62 58 52 49 42 42 43 46 49 50 51 53 54 55 55 56 55 55 56 58 59 60 59 62 60 62 63 64 65 64 65 65 65 64 65 67 67 67 68 68 68 69 71 70 73 75 76 76 76 76 76 76 76 76 76 76 76 77 77 77 77 77 77 77 76 76 76 76 76 75 75 75 75 75 74 74 74 74 74 74 74 74 74 74 75 75 74 75 75 75 75 75 74 74 74
64 62 62 59 54 45 39 40 42 45 47 50 51 53 55 55 55 54 55 55 57 57 59 60 59 60 60 62 64 67 65 64 63 64 65 65 66 67 66 67 68 68 68 69 70 70 72 74 76 76 76 76 76 76 76 76 76 76 76 77 77 77 77 77 77 77 76 76 76 76 76 75 75 75 75 75 74 74 74 74 74 74 74 74 74 74 74 74 74 75 75 74 75 75 75 75 75
62 58 60 56 50 48 42 41 41 43 47 49 49 52 54 55 55 54 54 54 56 57 58 59 58 60 59 61 63 66 65 64 63 65 65 65 65 66 66 66 67 67 68 68 70 71 71 73 75 76 76 76 76 76 75 75 76 76 76 77 77 77 77 77 77 77 76 76 76 76 75 75 75 75 75 75 75 74 74 74 74 74 74 74 74 74 73 73 73 74 74 74 74 75 74 75 75
63 59 57 51 51 48 45 42 40 43 44 47 48 52 53 54 54 54 54 54 55 55 56 59 60 59 58 60 65 66 63 63 63 65 65 65 65 66 67 66 67 68 68 70 70 71 73 72 73 75 75 76 76 76 76 76 76 76 76 77 77 77 77 77 77 77 76 76 76 76 75 75 75 75 75 75 74 74 74 75 75 74 74 74 74 74 74 73 74 73 74 74 74 74 74 74 74
61 61 58 55 51 48 47 42 41 40 41 45 49 52 53 53 54 54 54 54 54 55 57 60 59 59 60 63 65 63 62 63 64 64 65 65 66 65 66 67 67 68 69 70 71 72 73 73 74 75 76 76 76 76 76 76 76 76 76 76 77 77 77 77 76 76 76 76 76 76 75 75 75 75 75 75 74 74 74 75 75 74 74 74 74 73 74 73 73 74 74 74 74 74 74 74 75
61 61 58 55 50 46 44 44 40 40 42 47 50 51 52 55 54 55 55 54 55 59 59 60 59 58 56 59 61 61 61 63 64 65 65 65 66 67 67 68 68 69 69 69 70 72 73 74 74 76 77 76 75 75 76 76 76 76 76 76 76 76 76 76 76 76 76 76 76 76 75 75 75 75 75 74 74 74 75 75 74 74 74 74 73 73 74 74 75 75 75 75 74 74 74 74 74
62 60 59 54 50 44 43 43 43 41 41 48 49 51 52 54 55 55 55 56 58 60 59 57 60 56 58 58 60 60 62 63 64 65 65 66 67 68 67 68 69 69 69 70 70 72 73 73 75 75 76 77 75 73 74 76 76 76 76 77 76 76 76 76 76 76 76 76 76 75 75 75 75 75 75 74 74 74 75 75 74 73 74 73 73 74 74 75 76 76 76 75 75 74 74 75 74
62 60 56 54 49 43 43 42 42 41 44 47 50 51 51 53 55 57 59 59 57 58 57 59 58 60 57 59 61 62 62 64 65 64 65 66 68 67 68 69 69 69 69 69 71 71 71 74 75 76 75 75 75 73 73 75 75 76 77 77 77 76 76 76 76 76 76 76 76 75 75 76 76 76 75 75 74 75 75 74 74 73 74 74 73 74 75 75 76 76 76 76 75 75 74 75 76
61 58 53 51 48 45 45 44 42 45 43 47 51 51 51 53 55 59 59 57 57 57 57 59 60 59 61 62 62 63 63 64 64 64 65 65 67 66 67 68 68 68 69 69 70 71 71 73 75 75 76 77 76 75 73 74 76 76 76 76 77 77 76 76 77 76 75 76 74 75 76 76 75 75 76 73 76 75 76 74 74 74 74 74 74 75 75 75 75 76 76 76 76 76 75 75 75
58 55 53 50 48 49 48 48 47 45 46 47 50 51 50 52 54 58 55 56 57 57 58 59 59 61 63 63 63 63 63 64 63 63 64 65 64 65 66 68 68 68 68 69 69 70 72 73 75 73 75 76 76 76 74 74 75 75 75 75 75 75 76 76 75 75 75 77 76 75 76 74 74 74 75 75 76 73 75 75 74 74 75 75 75 75 75 75 75 75 76 75 75 74 77 74 73
58 55 51 47 49 50 50 49 49 49 49 48 48 51 51 53 53 58 52 55 56 55 57 58 59 61 62 63 63 63 64 63 64 63 63 64 64 64 64 65 66 68 68 68 69 70 71 71 73 74 74 76 76 75 74 75 75 74 73 74 74 74 75 75 75 76 76 76 77 76 74 75 75 75 74 74 74 75 76 75 74 75 75 76 74 75 76 76 75 76 76 76 76 74 73 71 70
57 55 51 51 51 49 50 51 51 49 47 48 49 51 51 53 55 56 52 53 55 54 56 57 58 61 62 63 62 63 63 62 63 61 62 63 63 62 63 65 64 66 68 68 69 70 71 71 71 72 74 75 75 74 74 73 75 73 72 73 73 72 73 74 75 76 76 76 75 74 73 74 73 74 74 74 74 75 75 74 75 74 74 75 74 75 73 75 74 74 74 73 73 73 72 72 73
57 54 53 52 52 50 51 50 51 48 47 47 49 49 49 54 55 54 52 51 48 51 53 57 58 61 62 63 62 63 62 62 61 61 61 62 62 63 63 64 64 66 68 68 69 70 70 71 71 71 72 75 74 73 73 73 75 74 74 72 73 73 73 73 74 75 74 75 74 72 73 73 73 73 74 74 74 75 74 73 73 73 73 74 75 74 72 74 73 73 73 72 72 71 72 73 72
52 54 54 54 55 54 56 53 51 50 49 48 47 48 50 51 50 52 51 51 48 50 52 57 58 61 62 63 63 62 62 62 61 61 61 61 62 62 62 63 63 64 66 67 69 70 70 70 72 71 71 73 73 73 72 72 73 74 74 73 72 72 72 73 73 73 73 74 73 73 70 71 72 71 72 72 73 73 73 74 74 74 74 74 75 73 74 74 72 72 72 72 71 70 71 73 73
53 47 50 52 53 53 56 54 55 55 52 48 47 49 48 49 47 50 50 51 50 55 55 57 60 62 62 62 63 62 62 62 62 62 61 61 61 61 62 63 63 65 67 67 67 69 70 70 72 72 72 72 73 72 72 72 72 72 72 73 73 71 72 72 71 72 73 73 74 73 73 72 70 70 72 72 73 73 73 74 75 73 73 72 75 74 72 72 72 72 73 73 72 72 70 72 71
54 51 50 52 54 53 54 54 53 51 50 50 48 46 46 48 48 47 50 51 52 56 57 60 62 62 62 63 63 62 63 63 62 62 62 62 62 62 62 63 63 64 65 66 66 68 70 70 71 71 71 73 72 71 71 71 72 72 72 72 72 73 73 72 71 73 73 72 73 74 74 71 71 72 73 72 73 74 74 74 73 72 73 73 73 72 73 73 72 71 72 72 73 73 71 71 71
54 53 53 53 51 49 49 50 49 47 46 47 47 45 44 44 47 46 47 51 54 57 60 61 62 62 62 62 63 63 64 63 63 62 62 63 63 62 62 63 63 63 65 65 65 67 69 70 70 70 71 72 72 71 72 71 71 71 72 73 72 73 72 72 73 71 72 71 73 74 73 72 71 70 71 73 73 74 74 75 74 73 73 72 72 73 73 72 71 71 73 73 73 73 73 73 71
51 52 52 51 49 48 47 46 45 44 44 45 44 42 41 42 43 43 47 51 56 59 61 62 62 61 62 62 62 63 63 63 63 63 63 63 63 62 62 62 63 64 65 66 65 67 69 70 69 71 71 73 72 71 72 72 72 72 73 72 72 73 73 73 73 72 71 71 72 75 74 75 73 71 72 73 73 73 73 74 73 74 72 73 74 73 74 74 72 72 74 73 73 74 73 72 71
45 45 44 44 45 44 43 42 41 41 39 41 42 40 38 36 41 41 44 51 58 59 60 62 61 62 62 62 63 65 65 64 64 64 63 63 62 62 62 63 63 63 64 65 66 68 67 68 69 70 71 72 72 71 72 72 73 72 73 73 72 73 74 73 72 72 71 71 73 75 75 74 74 73 75 75 74 73 73 73 73 73 72 73 75 74 74 75 74 74 76 76 75 75 74 73 70
45 43 38 36 35 35 38 38 37 36 35 37 37 36 34 38 41 44 46 56 57 58 60 61 61 62 62 63 63 65 65 65 64 64 63 64 64 63 63 63 63 64 65 65 66 67 66 67 68 70 71 73 73 72 71 72 72 72 73 73 72 73 73 73 72 72 73 73 75 75 75 76 76 74 74 75 74 73 74 75 74 75 75 75 75 76 76 76 75 74 74 75 74 74 73 71 68
39 36 33 31 29 29 31 34 34 34 33 33 32 31 31 36 43 44 49 57 56 57 60 60 61 61 62 63 63 65 65 65 65 64 65 65 64 64 64 64 64 65 66 67 66 66 66 67 67 68 69 71 73 71 72 71 72 72 72 72 73 73 72 72 72 72 73 73 74 76 75 76 76 75 75 75 74 73 75 75 75 74 74 76 76 77 74 74 73 74 74 73 73 73 71 68 65
33 31 30 27 26 28 32 32 33 33 33 31 32 31 30 32 41 43 53 56 55 56 58 59 60 61 62 62 63 64 64 66 64 64 65 65 65 65 65 65 65 66 67 67 66 68 68 68 67 66 70 71 72 72 72 72 72 72 71 72 72 74 73 72 71 71 72 72 73 73 76 76 76 76 75 75 74 73 73 74 74 75 75 76 74 76 75 74 74 74 73 74 74 71 67 67 66
29 28 27 26 24 26 29 29 28 30 31 28 31 31 30 28 40 47 54 54 54 55 57 58 59 60 62 62 63 63 64 64 64 64 64 64 65 65 65 66 66 66 68 69 68 69 69 68 69 67 69 70 71 72 72 72 72 73 72 72 72 73 72 71 70 71 71 71 73 73 76 76 76 76 76 75 73 73 73 73 74 75 77 76 76 76 76 74 75 74 75 74 73 68 67 64 65
29 27 25 24 24 25 27 27 29 29 29 32 31 30 29 29 38 49 53 52 53 54 56 58 59 60 61 62 62 63 63 64 64 64 65 65 65 65 65 66 67 67 68 69 69 70 70 69 70 68 67 70 71 71 72 73 73 73 73 71 71 72 71 71 71 71 71 72 72 71 74 76 76 76 76 76 74 74 72 74 74 76 77 75 76 76 75 74 75 70 75 75 72 69 64 63 64
25 27 26 26 24 25 26 23 24 26 27 28 32 30 30 30 41 49 51 50 52 52 54 57 59 60 62 62 62 62 64 64 64 65 65 65 65 66 66 68 67 68 69 69 69 70 70 70 70 69 69 68 70 71 72 73 73 73 72 71 72 71 70 69 70 71 72 71 72 71 73 75 76 76 76 75 75 74 74 75 74 77 77 76 76 76 75 75 76 74 74 75 70 69 65 64 63
21 23 24 24 29 28 26 25 25 26 27 26 29 30 31 30 36 46 48 49 51 52 53 56 58 60 62 62 62 62 63 64 64 65 65 66 66 66 66 67 68 68 68 70 70 72 71 71 71 71 70 69 69 72 73 73 73 73 71 72 71 72 72 71 70 70 71 72 70 73 75 76 75 76 75 75 75 73 73 75 76 77 77 77 77 76 75 76 74 74 73 75 72 68 67 67 66
19 19 21 24 24 27 27 28 25 24 23 25 28 28 28 30 31 42 47 48 49 51 53 56 58 59 62 62 61 62 63 63 65 65 65 65 66 66 66 68 68 68 69 71 72 72 73 72 72 72 71 69 70 72 72 71 71 71 70 70 70 70 71 71 72 71 71 69 70 72 76 76 75 75 76 76 76 75 76 75 76 77 77 76 76 75 74 74 76 75 74 73 70 69 68 67 66
17 15 19 22 24 25 27 27 25 23 23 24 25 26 25 26 28 32 46 48 49 50 52 56 58 59 61 61 61 62 64 63 64 65 65 65 65 66 67 68 68 69 70 70 71 72 72 72 72 72 72 71 71 70 70 70 69 70 70 68 68 68 70 72 72 72 70 68 71 73 76 74 75 75 75 76 76 77 77 76 77 78 77 76 76 76 76 76 76 76 76 73 70 70 67 67 66
17 15 15 18 22 24 27 28 27 24 24 27 29 25 27 29 29 29 41 47 47 48 51 56 58 59 60 62 61 62 64 63 64 65 65 66 66 67 67 68 69 68 69 70 71 72 72 73 73 73 72 72 71 70 70 70 70 69 69 69 68 69 70 71 72 73 70 70 73 75 76 75 75 76 75 76 77 78 77 76 77 77 77 76 77 77 77 77 77 76 74 71 71 68 67 63 65
18 16 17 15 17 20 23 28 26 26 26 27 26 27 27 28 28 28 30 45 47 48 50 53 58 60 61 61 62 62 63 64 64 64 65 65 66 67 68 68 68 68 69 69 71 72 73 73 73 73 72 72 72 72 71 71 71 72 71 70 70 69 71 72 71 71 71 70 72 76 76 75 75 75 76 76 76 77 77 77 77 77 77 77 77 77 77 77 77 76 74 71 68 70 68 68 67
17 13 13 14 17 18 20 25 27 28 27 26 30 25 26 28 30 29 29 41 48 48 47 50 55 59 60 61 62 62 63 64 64 65 64 65 66 67 68 68 69 69 69 69 70 71 72 73 74 74 74 73 73 73 73 73 73 74 74 74 73 72 72 73 73 72 73 72 72 75 76 75 75 75 75 75 76 76 77 77 76 76 78 78 77 76 76 76 77 73 72 71 70 66 64 65 66
15 12 10 10 13 17 20 23 25 24 23 23 24 25 26 28 26 27 30 34 45 47 48 51 54 57 59 61 62 63 63 65 65 65 65 65 66 67 68 69 68 68 69 70 70 71 71 73 74 74 74 73 74 74 74 74 74 74 74 75 74 74 74 73 72 71 73 74 71 73 74 75 75 75 74 75 75 76 77 77 76 77 77 77 77 75 75 75 74 72 73 72 71 67 63 64 67
12 11 10 10 11 12 16 22 24 25 26 24 22 25 26 30 27 26 28 36 45 48 51 52 55 57 60 60 62 63 63 65 66 65 65 65 66 68 69 69 68 68 69 70 70 71 72 73 74 74 74 74 74 75 75 75 74 73 72 72 72 72 72 72 72 71 70 71 69 68 73 73 74 75 75 75 75 75 76 77 77 77 77 77 77 75 75 76 74 73 72 72 70 70 68 64 65
12 11 12 10 11 11 12 19 22 22 24 25 25 24 25 29 29 30 32 41 48 49 52 52 55 58 59 61 61 61 62 63 65 65 66 65 67 68 69 70 69 69 69 70 71 71 72 73 74 75 75 75 75 75 75 75 74 74 74 73 71 72 72 72 73 72 70 70 71 70 71 74 75 74 74 75 75 75 76 76 77 77 76 76 76 76 75 74 72 73 72 71 70 69 69 66 64
10 10 12 14 11 11 13 18 17 18 18 19 24 24 25 25 27 32 35 44 45 50 53 54 53 59 57 60 60 62 62 62 64 66 66 66 67 67 69 69 69 67 69 69 70 71 73 74 74 75 75 75 75 76 75 74 74 74 74 73 72 72 72 72 73 74 73 73 72 71 71 73 76 76 74 75 75 75 76 76 77 76 76 76 75 75 74 74 73 73 73 73 72 71 70 67 64
11 10 15 18 17 14 13 13 12 14 16 21 22 24 26 26 28 31 31 34 42 48 50 54 55 57 59 60 59 61 61 62 64 65 65 66 66 67 68 69 69 68 68 69 70 72 73 74 74 75 75 75 75 76 75 75 74 74 74 73 73 72 72 71 73 74 73 74 74 73 73 74 76 77 75 74 76 76 75 76 76 76 75 75 75 74 74 73 74 74 74 73 72 72 71 69 67
16 13 20 19 17 15 12 10 11 16 21 21 23 20 24 25 25 26 30 30 35 42 47 50 54 55 58 58 60 60 62 63 63 64 65 66 66 67 67 68 69 68 69 71 71 72 73 74 75 75 75 75 75 76 75 75 75 75 75 74 73 72 72 72 72 74 74 75 74 75 74 74 73 75 77 76 76 76 76 76 75 75 75 73 74 74 74 74 74 75 75 74 74 71 71 70 68
18 13 18 17 15 16 16 15 18 20 19 22 17 18 20 19 23 23 26 29 33 32 37 46 53 54 56 59 59 59 61 63 63 63 65 67 67 67 68 68 70 70 70 71 71 72 72 73 75 75 76 75 76 76 75 75 75 75 75 74 74 73 73 73 73 74 75 75 75 74 74 75 74 74 73 76 76 76 76 76 74 74 75 74 75 75 74 73 73 74 74 75 74 72 72 70 70
17 15 17 14 18 17 20 19 23 18 16 22 16 17 17 18 20 22 26 27 31 33 31 36 47 53 54 57 57 57 60 62 62 63 64 66 67 67 68 68 70 70 70 70 70 71 72 73 74 75 76 76 75 75 75 75 75 75 75 75 74 74 74 73 74 74 75 75 75 74 74 74 75 74 75 73 74 74 76 76 76 75 75 75 75 75 75 74 73 73 74 75 75 74 73 72 71
16 16 18 13 16 19 18 20 17 16 15 16 11 13 14 16 21 23 21 20 24 33 31 29 41 50 53 55 57 58 59 60 62 64 64 65 66 67 67 69 70 71 71 71 70 70 72 73 74 75 75 75 75 75 75 75 75 75 75 75 75 75 75 75 74 74 75 75 75 74 74 74 75 75 74 74 74 76 75 77 77 76 75 76 76 76 76 76 76 74 74 74 74 74 72 72 70
15 16 16 17 17 20 19 16 17 17 16 9 13 15 14 17 19 23 19 23 26 28 33 32 31 44 52 54 57 55 58 60 62 63 64 65 67 67 68 69 70 71 71 70 71 71 72 72 74 75 76 76 76 75 74 74 75 75 75 75 75 75 75 75 74 74 74 74 75 74 73 73 74 75 74 75 73 75 75 77 78 77 77 77 76 76 76 76 76 75 75 75 74 74 73 73 72
15 15 12 17 20 18 21 18 15 14 15 13 11 14 19 15 18 18 19 22 24 26 27 35 34 37 49 50 53 55 57 60 62 63 63 64 66 68 67 68 69 70 70 70 70 72 73 73 74 75 75 76 76 75 75 75 74 75 76 75 75 75 75 74 74 74 74 74 74 74 75 73 73 74 74 76 76 75 76 77 78 77 77 77 76 76 75 76 76 76 76 75 74 74 74 72 72
15 15 13 15 17 19 17 18 12 11 12 13 18 15 15 14 28 28 26 19 23 24 25 25 28 30 36 47 49 51 54 57 59 62 63 64 66 67 67 68 69 70 71 70 71 71 72 73 74 75 75 76 76 76 75 75 75 75 76 76 75 75 75 75 75 75 75 75 75 75 75 75 74 74 76 76 76 76 77 77 78 77 77 76 76 76 76 75 76 76 75 75 75 74 74 73 72
17 14 13 12 14 14 18 20 17 19 20 19 21 18 14 14 14 20 23 21 22 23 20 20 26 28 37 43 47 49 51 55 58 60 62 65 65 67 67 68 68 68 69 70 71 72 73 73 73 74 75 76 75 76 75 75 75 75 76 76 76 76 75 75 74 74 73 75 76 75 75 75 75 75 75 76 77 78 77 77 77 77 77 77 76 76 75 75 76 76 75 76 74 74 74 74 72
17 14 13 14 14 14 19 13 21 16 10 14 11 14 17 15 12 13 12 16 16 18 20 16 27 31 37 40 47 50 51 54 58 61 63 64 65 66 66 66 67 68 68 70 72 72 72 72 73 74 75 75 75 75 75 75 76 76 76 76 76 76 75 74 74 74 75 74 75 76 75 74 75 74 74 75 76 77 78 78 77 77 77 77 76 76 76 76 76 75 75 75 74 75 74 74 73
15 14 14 12 16 16 21 22 16 15 15 12 9 6 9 14 19 24 21 13 14 20 24 22 20 26 33 40 46 51 53 54 57 59 62 63 64 64 66 65 66 67 69 70 71 71 71 72 72 72 74 74 74 74 75 75 75 75 75 76 76 76 76 75 75 75 76 75 73 74 74 74 74 75 76 76 76 76 77 77 77 77 77 77 77 76 76 76 76 75 74 74 75 75 75 74 74
16 17 15 14 17 18 21 21 22 21 16 17 13 8 11 20 17 13 21 25 23 18 21 21 20 23 29 37 41 47 53 54 56 58 60 61 62 63 64 64 64 66 68 68 68 68 69 70 72 72 73 74 75 75 75 75 75 75 75 76 77 77 77 76 76 75 75 74 75 73 74 73 74 74 75 76 76 75 76 76 76 75 75 76 76 75 75 76 75 75 73 72 73 75 74 74 72
15 16 15 14 15 17 17 17 16 17 19 17 17 12 18 22 17 14 18 25 27 22 24 28 25 23 23 32 36 45 53 55 56 58 58 61 62 62 63 64 64 64 66 66 66 67 67 68 70 71 72 72 72 73 74 75 75 75 76 76 76 76 76 76 76 75 75 75 75 75 74 74 75 74 75 75 76 76 76 76 75 76 75 76 77 76 76 76 75 75 75 74 73 75 74 73 73
16 16 16 14 15 17 19 20 18 15 14 19 16 16 24 16 12 20 17 19 21 25 25 27 29 25 31 30 35 43 51 57 57 56 56 57 61 62 62 63 64 63 63 64 65 65 66 68 68 69 69 70 71 72 74 75 75 74 75 75 75 75 75 76 75 75 75 74 75 75 75 75 74 75 75 74 76 76 76 76 75 76 76 76 77 77 75 76 76 75 75 73 73 74 73 73 73